Regional Weather Roundup
Issued by NWS Cleveland, OH

Home | Current Version | Previous Version | Text Only | Print | Product List | Glossary Off
Versions: 1 2 3 4 5 6 7 8 9 10 11 12 13 14 15 16 17 18 19 20 21 22 23 24 25 26 27 28 29 30 31 32 33 34 35 36 37 38 39 40 41 42 43 44 45 46 47 48 49 50

000
ASUS41 KCLE 231002
RWRCLE
OHIO REGIONAL WEATHER ROUNDUP
NATIONAL WEATHER SERVICE CLEVELAND, OH
600 AM EDT THU OCT 23 2014

NOTE: "FAIR" INDICATES FEW OR NO CLOUDS BELOW 12,000 FEET WITH NO
SIGNIFICANT WEATHER AND/OR OBSTRUCTIONS TO VISIBILITY.

OHZ001>008-015>018-024>027-034-035-043-044-231100-
   NORTHWEST OHIO

CITY           SKY/WX    TMP DP  RH WIND       PRES   REMARKS
DEFIANCE       FOG       32  31  96 CALM      30.26F VSB 1/2
FINDLAY        CLEAR     34  32  92 W6        30.24F FOG     WCI  29
TOLEDO EXPRESS CLEAR     35  33  92 CALM      30.25F
TOLEDO EXEC    CLEAR     36  34  92 NW5       30.26S
LIMA           CLEAR     38  35  89 CALM      30.24F FOG
$$

OHZ009>014-019>023-028>033-038-089-231100-
   NORTHEAST OHIO

CITY           SKY/WX    TMP DP  RH WIND       PRES   REMARKS
CLE-HOPKINS    MOCLDY    48  44  86 N7        30.22S
CLE-LAKEFRONT  PTCLDY    51  45  79 N12       30.20R
CUY CO. ARPT   NOT AVBL
LORAIN-ELYRIA  PTCLDY    45  43  93 NW7       30.21S
ASHTABULA      PTCLDY    42  40  92 CALM      30.19R
AKRON-CANTON   PTCLDY    45  42  89 NW8       30.18R
WOOSTER        CLOUDY    47  43  86 NW8       30.20R
MANSFIELD      FOG       41  41 100 NW9       30.21S VSB 3/4
YOUNGSTOWN     PTCLDY    40  39  97 NW6       30.15S
$$

OHZ042-051>053-060>062-070>072-077>081-231100-
  SOUTHWEST OHIO

CITY           SKY/WX    TMP DP  RH WIND       PRES   REMARKS
CINC-COVINGTON CLEAR     45  39  79 NW7       30.24F
CINC-LUNKEN    MOCLDY    43  41  93 CALM      30.26S
HAMILTON       PTCLDY    36  36 100 CALM      30.26S
DAYTON         PTCLDY    39  37  92 CALM      30.25F FOG
WRIGHT-PAT AFB CLEAR     42  39  90 CALM      30.24F
DAYTON GENERAL CLEAR     41  38  89 CALM      30.24S
WILMINGTON     CLEAR     41  37  86 NW3       30.23S
$$

OHZ036-037-039>041-045>050-054>059-063>069-073>076-082>088-231100-
  CENTRAL AND SOUTHEAST OHIO

CITY           SKY/WX    TMP DP  RH WIND       PRES   REMARKS
COLUMBUS       PTCLDY    41  39  93 N6        30.23S
OSU AIRPORT    CLEAR     40  38  93 NW7       30.23S
BOLTON FIELD   CLEAR     40  39  96 NW5       30.23F
RICKENBACK AFB NOT AVBL
NEWARK         CLEAR     39  37  92 CALM      30.22R FOG
MARION         CLEAR     38  37  97 NW5       30.24S FOG
LANCASTER      CLEAR     40  37  89 NW5       30.23R FOG
ZANESVILLE     CLEAR     42  39  89 NW5       30.20S
NEW PHILLY     PTCLDY    45  43  93 NW6       30.19S
$$



USA.gov is the U.S. government's official web portal to all federal, state and local government web resources and services.